Weather History for KSGJ - November, 2012

Change the Weather History Date:

Monday, November 12, 2012

  Actual Average Record
Temperature  
Mean Temperature 72 °F -  
Max Temperature 79 °F 71 °F 87 °F (1986)
Min Temperature 66 °F 55 °F 38 °F (1984)
Cooling Degree Days 8    
Growing Degree Days 22 (Base 50)    
Moisture  
Dew Point 65 °F    
Average Humidity 84    
Maximum Humidity 97    
Minimum Humidity 64    
Precipitation  
Precipitation 0.05 in - - ()
Sea Level Pressure  
Sea Level Pressure 30.25 in    
Wind  
Wind Speed 7 mph (SE)    
Max Wind Speed 15 mph    
Max Gust Speed 20 mph    
Visibility 9 miles    
Events Rain    
Averages and records for this station are not official NWS values.
T = Trace of Precipitation, MM = Missing Value Source: NWS Daily Summary

Daily Weather History Graph

Daily Weather History Graph

Search for Another Location

Airport or City:

Trip Planner

Search our weather history database for the weather conditions in past years. The results will help you decide how hot, cold, wet, or windy it might be!

Date:

Astronomy

Nov. 12, 2012 Rise Set
Actual Time 6:48 AM EST 5:30 PM EST
Civil Twilight 6:23 AM EST 5:55 PM EST
Nautical Twilight 5:54 AM EST 6:24 PM EST
Astronomical Twilight 5:25 AM EST 6:52 PM EST
Moon 5:15 AM EST (11/12) 4:32 PM EST (11/12)
Length of Visible Light 11h 32m
Length of Day
10h 42m
Waning Crescent, 2% of the Moon is Illuminated
Nov 12
Waning Crescent
Nov 13
New
Nov 20
First Quarter
Nov 28
Full
Dec 6
Last Quarter

Hourly Weather History & Observations

Time (EST) Temp. Dew Point Humidity Pressure Visibility Wind Dir Wind Speed Gust Speed Precip Events Conditions
12:58 AM 71.1 °F 64.9 °F 81% 30.28 in 10.0 mi ESE 15.0 mph 19.6 mph N/A   Overcast
1:58 AM 69.1 °F 64.9 °F 87% 30.27 in 10.0 mi ESE 8.1 mph - 0.00 in   Overcast
2:24 AM 69.8 °F 64.4 °F 83% 30.27 in 6.0 mi South 6.9 mph - 0.03 in Rain Rain
2:39 AM 69.8 °F 66.2 °F 88% 30.27 in 10.0 mi ESE 5.8 mph - 0.05 in Rain Light Rain
2:58 AM 69.1 °F 66.0 °F 90% 30.26 in 9.0 mi ESE 3.5 mph - 0.05 in   Overcast
3:58 AM 69.1 °F 64.9 °F 87% 30.25 in 10.0 mi ESE 3.5 mph - N/A   Scattered Clouds
4:58 AM 69.1 °F 64.9 °F 87% 30.25 in 10.0 mi SSE 4.6 mph - N/A   Mostly Cloudy
5:58 AM 66.0 °F 64.0 °F 93% 30.25 in 8.0 mi Calm Calm - N/A   Mostly Cloudy
6:08 AM 66.2 °F 64.4 °F 94% 30.25 in 7.0 mi Calm Calm - N/A   Mostly Cloudy
6:40 AM 66.2 °F 64.4 °F 94% 30.25 in 9.0 mi Calm Calm - N/A   Overcast
6:54 AM 66.2 °F 64.4 °F 94% 30.26 in 8.0 mi Calm Calm - N/A   Mostly Cloudy
6:58 AM 66.9 °F 66.0 °F 97% 30.26 in 8.0 mi Calm Calm - N/A   Mostly Cloudy
7:02 AM 68.0 °F 66.2 °F 94% 30.26 in 8.0 mi SE 4.6 mph - 0.00 in Rain Light Rain
7:58 AM 70.0 °F 66.0 °F 87% 30.27 in 10.0 mi SE 4.6 mph - 0.00 in   Partly Cloudy
8:58 AM 72.0 °F 66.9 °F 84% 30.29 in 10.0 mi ESE 6.9 mph - N/A   Mostly Cloudy
9:58 AM 73.9 °F 66.0 °F 76% 30.29 in 10.0 mi ESE 5.8 mph - N/A   Overcast
10:58 AM 77.0 °F 66.9 °F 71% 30.28 in 10.0 mi ESE 13.8 mph 19.6 mph N/A   Scattered Clouds
11:58 AM 75.0 °F 66.0 °F 73% 30.27 in 10.0 mi ESE 9.2 mph - N/A   Overcast
12:58 PM 79.0 °F 66.0 °F 64% 30.25 in 10.0 mi SE 13.8 mph - N/A   Scattered Clouds
1:58 PM 73.9 °F 64.9 °F 73% 30.23 in 10.0 mi ESE 10.4 mph - N/A   Overcast
2:58 PM 75.9 °F 64.9 °F 69% 30.22 in 10.0 mi SE 12.7 mph - N/A   Overcast
3:58 PM 75.0 °F 64.9 °F 71% 30.22 in 10.0 mi SE 5.8 mph - N/A   Overcast
4:58 PM 72.0 °F 66.0 °F 81% 30.22 in 10.0 mi ESE 3.5 mph - N/A   Partly Cloudy
5:58 PM 71.1 °F 66.9 °F 87% 30.22 in 10.0 mi ESE 4.6 mph - 0.00 in Rain Light Rain
6:58 PM 70.0 °F 64.9 °F 84% 30.22 in 10.0 mi SSE 4.6 mph - 0.00 in   Scattered Clouds
7:58 PM 71.1 °F 64.9 °F 81% 30.23 in 10.0 mi SSE 8.1 mph - N/A   Overcast
8:58 PM 70.0 °F 64.0 °F 81% 30.22 in 10.0 mi SSE 6.9 mph - N/A   Overcast
9:58 PM 69.1 °F 64.0 °F 84% 30.22 in 10.0 mi South 3.5 mph - N/A   Scattered Clouds
10:58 PM 66.9 °F 63.0 °F 87% 30.22 in 10.0 mi Calm Calm - N/A   Clear
11:58 PM 66.0 °F 63.0 °F 90% 30.20 in 10.0 mi Calm Calm - N/A   Clear